Ottumwa, IA

8:23 PM CST on January 17, 2017 (GMT -0600)
Ottumwa Industrial

Weather History for KOTM - August, 2014

Change the Weather History Date:

Saturday, August 30, 2014

  Actual Average Record
Temperature  
Mean Temperature 73 °F 71 °F  
Max Temperature 80 °F 82 °F 104 °F (1947)
Min Temperature 65 °F 60 °F 42 °F (1915)
Degree Days  
Heating Degree Days 0 1  
Month to date heating degree days 0 3  
Since 1 June heating degree days 22 26  
Since 1 July heating degree days 13 5  
Cooling Degree Days 8 6  
Month to date cooling degree days 233 249  
Year to date cooling degree days 722 828  
Since 1 June cooling degree days 611 764  
Growing Degree Days 22 (Base 50)    
Moisture  
Dew Point 66 °F    
Average Humidity 84    
Maximum Humidity 100    
Minimum Humidity 67    
Precipitation  
Precipitation 0.01 in 0.14 in 2.49 in (1965)
Month to date precipitation 5.50 4.46  
Year to date precipitation 29.61 26.55  
Sea Level Pressure  
Sea Level Pressure 29.86 in    
Wind  
Wind Speed 6 mph (WSW)    
Max Wind Speed 13 mph    
Max Gust Speed 15 mph    
Visibility 9 miles    
Events Rain , Thunderstorm    
T = Trace of Precipitation, MM = Missing Value Source: NWS Daily Summary

Daily Weather History Graph

Daily Weather History Graph

Search for Another Location

Airport or City:

Trip Planner

Search our weather history database for the weather conditions in past years. The results will help you decide how hot, cold, wet, or windy it might be!

Date:

Astronomy

Aug. 30, 2014 Rise Set
Actual Time 6:34 AM CDT 7:45 PM CDT
Civil Twilight 6:05 AM CDT 8:13 PM CDT
Nautical Twilight 5:31 AM CDT 8:47 PM CDT
Astronomical Twilight 4:56 AM CDT 9:23 PM CDT
Moon 11:25 AM CDT (8/30) 10:17 PM CDT (8/30)
Length of Visible Light 14h 07m
Length of Day
13h 11m
Waxing Crescent, 23% of the Moon is Illuminated
Aug 30
Waxing Crescent
Sep 2
First Quarter
Sep 8
Full
Sep 15
Last Quarter
Sep 24
New

Hourly Weather History & Observations

Time (CDT) Temp. Dew Point Humidity Pressure Visibility Wind Dir Wind Speed Gust Speed Precip Events Conditions
12:20 AM 70.0 °F 69.1 °F 97% 29.84 in 2.5 mi SSW 11.5 mph 19.6 mph 0.12 in Rain , Thunderstorm Thunderstorms and Rain
12:22 AM 70.0 °F 69.1 °F 97% 29.84 in 1.5 mi SSW 15.0 mph 21.9 mph 0.21 in Rain , Thunderstorm Heavy Thunderstorms and Rain
12:33 AM 66.0 °F 64.0 °F 93% 29.85 in 1.5 mi WSW 20.7 mph 38.0 mph 0.38 in Rain , Thunderstorm Heavy Thunderstorms and Rain
12:40 AM 66.0 °F 64.0 °F 93% 29.83 in 1.8 mi West 15.0 mph 27.6 mph 0.46 in Rain , Thunderstorm Heavy Thunderstorms and Rain
12:44 AM 66.0 °F 64.0 °F 93% 29.83 in 3.0 mi West 11.5 mph 24.2 mph 0.47 in Rain , Thunderstorm Thunderstorms and Rain
12:53 AM 66.0 °F 64.9 °F 96% 29.81 in 10.0 mi SW 9.2 mph - 0.47 in Rain , Thunderstorm Light Rain
1:03 AM 66.0 °F 64.0 °F 93% 29.83 in 10.0 mi SW 8.1 mph - 0.00 in   Mostly Cloudy
1:53 AM 64.9 °F 63.0 °F 93% 29.79 in 10.0 mi SW 4.6 mph - 0.01 in   Clear
2:53 AM 64.4 °F 62.6 °F 94% 29.81 in 10.0 mi SSW 6.9 mph - N/A   Clear
3:53 AM 66.9 °F 64.9 °F 93% 29.80 in 10.0 mi SSW 8.1 mph - N/A   Overcast
4:03 AM 66.9 °F 64.9 °F 93% 29.83 in 10.0 mi SW 9.2 mph - N/A   Overcast
4:35 AM 66.9 °F 66.0 °F 97% 29.83 in 10.0 mi SW 6.9 mph - N/A   Scattered Clouds
4:53 AM 66.9 °F 66.0 °F 97% 29.82 in 10.0 mi WSW 8.1 mph - N/A   Scattered Clouds
5:25 AM 66.2 °F 66.2 °F 100% 29.83 in 10.0 mi WSW 8.1 mph - N/A   Partly Cloudy
5:53 AM 66.9 °F 64.9 °F 93% 29.83 in 10.0 mi WSW 5.8 mph - N/A   Clear
6:53 AM 64.9 °F 64.0 °F 97% 29.85 in 6.0 mi West 5.8 mph - N/A   Clear
7:53 AM 66.9 °F 64.9 °F 93% 29.86 in 10.0 mi West 6.9 mph - N/A   Clear
8:53 AM 70.0 °F 66.0 °F 87% 29.86 in 10.0 mi West 5.8 mph - N/A   Clear
9:16 AM 71.1 °F 66.0 °F 84% 29.88 in 10.0 mi West 6.9 mph - N/A   Partly Cloudy
9:53 AM 73.0 °F 66.9 °F 81% 29.87 in 10.0 mi West 9.2 mph - N/A   Scattered Clouds
10:01 AM 73.0 °F 66.9 °F 81% 29.89 in 10.0 mi West 8.1 mph - N/A   Mostly Cloudy
10:53 AM 73.0 °F 66.9 °F 81% 29.89 in 10.0 mi West 9.2 mph - N/A   Overcast
11:53 AM 72.0 °F 66.0 °F 81% 29.90 in 10.0 mi West 8.1 mph - N/A   Overcast
12:15 PM 73.0 °F 66.9 °F 81% 29.92 in 10.0 mi West 6.9 mph - N/A   Overcast
12:53 PM 73.9 °F 66.0 °F 76% 29.90 in 10.0 mi West 6.9 mph - N/A   Overcast
1:53 PM 75.9 °F 66.0 °F 71% 29.90 in 10.0 mi WNW 6.9 mph - N/A   Mostly Cloudy
2:32 PM 78.1 °F 68.0 °F 71% 29.90 in 10.0 mi WNW 6.9 mph - N/A   Scattered Clouds
2:46 PM 78.1 °F 66.9 °F 68% 29.90 in 10.0 mi West 6.9 mph - N/A   Mostly Cloudy
2:53 PM 78.1 °F 66.9 °F 68% 29.89 in 10.0 mi Variable 4.6 mph - N/A   Mostly Cloudy
3:53 PM 79.0 °F 66.9 °F 66% 29.88 in 10.0 mi WNW 5.8 mph - N/A   Mostly Cloudy
4:03 PM 79.0 °F 66.9 °F 66% 29.89 in 10.0 mi Variable 3.5 mph - N/A   Scattered Clouds
4:53 PM 79.0 °F 66.9 °F 66% 29.87 in 10.0 mi West 3.5 mph - N/A   Clear
5:53 PM 79.0 °F 66.9 °F 66% 29.86 in 10.0 mi WSW 3.5 mph - N/A   Clear
6:53 PM 78.1 °F 69.1 °F 74% 29.86 in 10.0 mi SSE 3.5 mph - N/A   Clear
7:53 PM 72.0 °F 68.0 °F 87% 29.87 in 10.0 mi SE 3.5 mph - N/A   Clear
8:53 PM 71.1 °F 66.9 °F 87% 29.88 in 10.0 mi SE 4.6 mph - N/A   Clear
9:53 PM 68.0 °F 66.0 °F 93% 29.88 in 10.0 mi SE 3.5 mph - N/A   Clear
10:53 PM 66.9 °F 64.9 °F 93% 29.89 in 10.0 mi SSE 4.6 mph - N/A   Clear
11:53 PM 64.9 °F 64.0 °F 97% 29.89 in 10.0 mi SSE 4.6 mph - N/A   Clear